ProjectID,Date,Electric Generation,Electric Utility Import,Facility Electric Load
,YYYY-MM-DD,kW,kW,kW
472,2009-06-01,0.0,,0.0
472,2009-06-02,1708.333375,,1708.333375
472,2009-06-03,762.502,,762.502
472,2009-06-04,1091.6747916666666,,1091.6747916666666
472,2009-06-05,1116.6686666666667,,1116.6686666666667
472,2009-06-06,1424.9979999999998,,1424.9979999999998
472,2009-06-07,1583.3334166666666,,1583.3334166666666
472,2009-06-08,1724.9960416666665,,1724.9960416666665
472,2009-06-09,1766.6727916666666,,1766.6727916666666
472,2009-06-10,1562.4897083333333,,1562.4897083333333
472,2009-06-11,1545.837375,,1545.837375
472,2009-06-12,1833.3333333333333,,1833.3333333333333
472,2009-06-13,1687.5000833333334,,1687.5000833333334
472,2009-06-14,1487.4979583333334,,1487.4979583333334
472,2009-06-15,1320.831375,,1320.831375
472,2009-06-16,1129.1706666666666,,1129.1706666666666
472,2009-06-17,1112.498,,1112.498
472,2009-06-18,1541.6665833333334,,1541.6665833333334
472,2009-06-19,1962.4938750000001,,1962.4938750000001
472,2009-06-20,1787.5060833333334,,1787.5060833333334
472,2009-06-21,1912.4960416666665,,1912.4960416666665
472,2009-06-22,1862.5081666666667,,1862.5081666666667
472,2009-06-23,1937.5,,1937.5
472,2009-06-24,2091.664625,,2091.664625
472,2009-06-25,2049.997875,,2049.997875
472,2009-06-26,2012.5020416666666,,2012.5020416666666
472,2009-06-27,1825.002125,,1825.002125
472,2009-06-28,1904.1646666666666,,1904.1646666666666
472,2009-06-29,2004.1707916666667,,2004.1707916666667
472,2009-06-30,1683.32925,,1683.32925
472,2009-07-01,645.8332916666667,,645.8332916666667
472,2009-07-02,1575.0020000000002,,1575.0020000000002
472,2009-07-03,2179.168708333333,,2179.168708333333
472,2009-07-04,1799.9979166666665,,1799.9979166666665
472,2009-07-05,1604.1565416666665,,1604.1565416666665
472,2009-07-06,1979.176875,,1979.176875
472,2009-07-07,1795.8374999999999,,1795.8374999999999
472,2009-07-08,1733.32725,,1733.32725
472,2009-07-09,1587.5041250000002,,1587.5041250000002
472,2009-07-10,1633.3210833333333,,1633.3210833333333
472,2009-07-11,1779.1748333333335,,1779.1748333333335
472,2009-07-12,1904.1646250000001,,1904.1646250000001
472,2009-07-13,1620.829125,,1620.829125
472,2009-07-14,937.5000416666667,,937.5000416666667
472,2009-07-15,1837.5041250000002,,1837.5041250000002
472,2009-07-16,1908.3352916666665,,1908.3352916666665
472,2009-07-17,1804.1686666666667,,1804.1686666666667
472,2009-07-18,1995.8394166666667,,1995.8394166666667
472,2009-07-19,1912.4959166666667,,1912.4959166666667
472,2009-07-20,1970.8353333333334,,1970.8353333333334
472,2009-07-21,2045.82725,,2045.82725
472,2009-07-22,1745.8292916666667,,1745.8292916666667
472,2009-07-23,1862.5080416666667,,1862.5080416666667
472,2009-07-24,1954.1625833333335,,1954.1625833333335
472,2009-07-25,1770.8332916666668,,1770.8332916666668
472,2009-07-26,1895.8333333333333,,1895.8333333333333
472,2009-07-27,1891.67275,,1891.67275
472,2009-07-28,1916.666625,,1916.666625
472,2009-07-29,1958.323125,,1958.323125
472,2009-07-30,2075.012208333333,,2075.012208333333
472,2009-07-31,2066.6605833333333,,2066.6605833333333
472,2009-08-01,2041.6665416666667,,2041.6665416666667
472,2009-08-02,1958.3332916666668,,1958.3332916666668
472,2009-08-03,2124.9999583333333,,2124.9999583333333
472,2009-08-04,2154.164583333333,,2154.164583333333
472,2009-08-05,2200.002,,2200.002
472,2009-08-06,2041.6668333333334,,2041.6668333333334
472,2009-08-07,1908.3253750000001,,1908.3253750000001
472,2009-08-08,1695.8415416666667,,1695.8415416666667
472,2009-08-09,2004.1606666666667,,2004.1606666666667
472,2009-08-10,2154.1748333333335,,2154.1748333333335
472,2009-08-11,2054.1585416666667,,2054.1585416666667
472,2009-08-12,1975.0061249999999,,1975.0061249999999
472,2009-08-13,1974.99575,,1974.99575
472,2009-08-14,2083.3435,,2083.3435
472,2009-08-15,1920.8272083333334,,1920.8272083333334
472,2009-08-16,2075.002,,2075.002
472,2009-08-17,2104.1565416666667,,2104.1565416666667
472,2009-08-18,2141.672666666667,,2141.672666666667
472,2009-08-19,2108.337375,,2108.337375
472,2009-08-20,2212.504125,,2212.504125
472,2009-08-21,2224.985708333333,,2224.985708333333
472,2009-08-22,2087.5040833333333,,2087.5040833333333
472,2009-08-23,2037.5061249999999,,2037.5061249999999
472,2009-08-24,1958.3333333333333,,1958.3333333333333
472,2009-08-25,2020.823125,,2020.823125
472,2009-08-26,2037.5061249999999,,2037.5061249999999
472,2009-08-27,1858.3374583333334,,1858.3374583333334
472,2009-08-28,2133.3212083333333,,2133.3212083333333
472,2009-08-29,2075.0019166666666,,2075.0019166666666
472,2009-08-30,2112.498125,,2112.498125
472,2009-08-31,1487.5183333333334,,1487.5183333333334
472,2009-09-01,1391.6525416666666,,1391.6525416666666
472,2009-09-02,1608.3475833333332,,1608.3475833333332
472,2009-09-03,1700.0020416666666,,1700.0020416666666
472,2009-09-04,1924.9877916666667,,1924.9877916666667
472,2009-09-05,2145.833291666667,,2145.833291666667
472,2009-09-06,1712.5040833333333,,1712.5040833333333
472,2009-09-07,1537.4958333333334,,1537.4958333333334
472,2009-09-08,1870.8495833333334,,1870.8495833333334
472,2009-09-09,1866.6585833333331,,1866.6585833333331
472,2009-09-10,1379.17075,,1379.17075
472,2009-09-11,1574.9917916666666,,1574.9917916666666
472,2009-09-12,1858.3170833333334,,1858.3170833333334
472,2009-09-13,1970.8455000000001,,1970.8455000000001
472,2009-09-14,1837.5040833333333,,1837.5040833333333
472,2009-09-15,1962.5040416666668,,1962.5040416666668
472,2009-09-16,1645.83325,,1645.83325
472,2009-09-17,1083.3332916666666,,1083.3332916666666
472,2009-09-18,1429.1585416666667,,1429.1585416666667
472,2009-09-19,1045.8170416666667,,1045.8170416666667
472,2009-09-20,1179.1789583333332,,1179.1789583333332
472,2009-09-21,1570.8414583333333,,1570.8414583333333
472,2009-09-22,1895.8333333333333,,1895.8333333333333
472,2009-09-23,2070.82125,,2070.82125
472,2009-09-24,1887.5122083333333,,1887.5122083333333
472,2009-09-25,1279.1747916666666,,1279.1747916666666
472,2009-09-26,945.8212083333333,,945.8212083333333
472,2009-09-27,1737.5082083333334,,1737.5082083333334
472,2009-09-28,1516.6626666666668,,1516.6626666666668
472,2009-09-29,1108.3172083333334,,1108.3172083333334
472,2009-09-30,845.8455416666667,,845.8455416666667
472,2009-10-01,591.654375,,591.654375
472,2009-10-02,750.0202916666667,,750.0202916666667
472,2009-10-03,1829.1625833333335,,1829.1625833333335
472,2009-10-04,1504.150375,,1504.150375
472,2009-10-05,933.3495416666666,,933.3495416666666
472,2009-10-06,962.5041249999999,,962.5041249999999
472,2009-10-07,1287.4959583333332,,1287.4959583333332
472,2009-10-08,891.6625416666667,,891.6625416666667
472,2009-10-09,1408.325125,,1408.325125
472,2009-10-10,1279.174875,,1279.174875
472,2009-10-11,837.5040416666667,,837.5040416666667
472,2009-10-12,720.825125,,720.825125
472,2009-10-13,858.3374166666667,,858.3374166666667
472,2009-10-14,695.8415,,695.8415
472,2009-10-15,654.1544583333333,,654.1544583333333
472,2009-10-16,616.6789166666666,,616.6789166666666
472,2009-10-17,637.4918333333334,,637.4918333333334
472,2009-10-18,616.658625,,616.658625
472,2009-10-19,650.0042083333334,,650.0042083333334
472,2009-10-20,833.3333333333334,,833.3333333333334
472,2009-10-21,1012.4919166666667,,1012.4919166666667
472,2009-10-22,1170.8375416666665,,1170.8375416666665
472,2009-10-23,854.1666666666666,,854.1666666666666
472,2009-10-24,1525.0040833333333,,1525.0040833333333
472,2009-10-25,833.3333333333334,,833.3333333333334
472,2009-10-26,724.9958750000001,,724.9958750000001
472,2009-10-27,616.6585833333334,,616.6585833333334
472,2009-10-28,858.3373750000001,,858.3373750000001
472,2009-10-29,724.9959166666666,,724.9959166666666
472,2009-10-30,791.6665416666666,,791.6665416666666
472,2009-10-31,1316.67075,,1316.67075
472,2009-11-01,770.8129583333333,,770.8129583333333
472,2009-11-02,733.3374166666667,,733.3374166666667
472,2009-11-03,758.3414583333333,,758.3414583333333
472,2009-11-04,687.4999583333333,,687.4999583333333
472,2009-11-05,687.4999166666666,,687.4999166666666
472,2009-11-06,666.6665833333333,,666.6665833333333
472,2009-11-07,633.3415416666667,,633.3415416666667
472,2009-11-08,804.1788333333334,,804.1788333333334
472,2009-11-09,908.32525,,908.32525
472,2009-11-10,962.504,,962.504
472,2009-11-11,749.9999583333333,,749.9999583333333
472,2009-11-12,683.3291250000001,,683.3291250000001
472,2009-11-13,708.33325,,708.33325
472,2009-11-14,916.6667083333333,,916.6667083333333
472,2009-11-15,1066.6707083333333,,1066.6707083333333
472,2009-11-16,829.1625416666667,,829.1625416666667
472,2009-11-17,720.8250416666666,,720.8250416666666
472,2009-11-18,712.48375,,712.48375
472,2009-11-19,904.1951250000001,,904.1951250000001
472,2009-11-20,783.32525,,783.32525
472,2009-11-21,491.678875,,491.678875
472,2009-11-22,487.48775,,487.48775
472,2009-11-23,483.337375,,483.337375
472,2009-11-24,504.17075,,504.17075
472,2009-11-25,500.0,,500.0
472,2009-11-26,504.17075,,504.17075
472,2009-11-27,549.9877916666667,,549.9877916666667
472,2009-11-28,691.6504166666667,,691.6504166666667
472,2009-11-29,716.67475,,716.67475
472,2009-11-30,737.508125,,737.508125
472,2009-12-01,670.8170416666667,,670.8170416666667
472,2009-12-02,725.0163333333334,,725.0163333333334
472,2009-12-03,991.6585,,991.6585
472,2009-12-04,687.4999583333333,,687.4999583333333
472,2009-12-05,670.8373333333333,,670.8373333333333
472,2009-12-06,658.325125,,658.325125
472,2009-12-07,662.4959583333333,,662.4959583333333
472,2009-12-08,662.4957916666666,,662.4957916666666
472,2009-12-09,745.8495833333333,,745.8495833333333
472,2009-12-10,666.666625,,666.666625
472,2009-12-11,649.9837083333333,,649.9837083333333
472,2009-12-12,641.6830416666667,,641.6830416666667
472,2009-12-13,662.4959166666666,,662.4959166666666
472,2009-12-14,674.98775,,674.98775
472,2009-12-15,679.17875,,679.17875
472,2009-12-16,499.9999583333333,,499.9999583333333
472,2009-12-17,345.82520833333336,,345.82520833333336
472,2009-12-18,400.00399999999996,,400.00399999999996
472,2009-12-19,387.51208333333335,,387.51208333333335
472,2009-12-20,387.51212499999997,,387.51212499999997
472,2009-12-21,404.15429166666667,,404.15429166666667
472,2009-12-22,395.8331666666666,,395.8331666666666
472,2009-12-23,383.34141666666665,,383.34141666666665
472,2009-12-24,404.15433333333334,,404.15433333333334
472,2009-12-25,437.49991666666665,,437.49991666666665
472,2009-12-26,633.321125,,633.321125
472,2009-12-27,729.1665833333333,,729.1665833333333
472,2009-12-28,425.008,,425.008
472,2009-12-29,374.99991666666665,,374.99991666666665
472,2009-12-30,395.8331666666666,,395.8331666666666
472,2009-12-31,429.158375,,429.158375
472,2010-01-01,454.18287499999997,,454.18287499999997
472,2010-01-02,399.9836666666667,,399.9836666666667
472,2010-01-03,408.3454583333333,,408.3454583333333
472,2010-01-04,416.6665,,416.6665
472,2010-01-05,404.15433333333334,,404.15433333333334
472,2010-01-06,391.68283333333335,,391.68283333333335
472,2010-01-07,395.8331666666666,,395.8331666666666
472,2010-01-08,366.6585,,366.6585
472,2010-01-09,354.166625,,354.166625
472,2010-01-10,370.8292083333333,,370.8292083333333
472,2010-01-11,379.1705416666667,,379.1705416666667
472,2010-01-12,379.17066666666665,,379.17066666666665
472,2010-01-13,383.3209583333333,,383.3209583333333
472,2010-01-14,395.83312500000005,,395.83312500000005
472,2010-01-15,487.50804166666666,,487.50804166666666
472,2010-01-16,595.8253333333333,,595.8253333333333
472,2010-01-17,600.0164166666667,,600.0164166666667
472,2010-01-18,537.4959583333333,,537.4959583333333
472,2010-01-19,474.995875,,474.995875
472,2010-01-20,474.995875,,474.995875
472,2010-01-21,466.67474999999996,,466.67474999999996
472,2010-01-22,466.654375,,466.654375
472,2010-01-23,466.67474999999996,,466.67474999999996
472,2010-01-24,462.50399999999996,,462.50399999999996
472,2010-01-25,545.817125,,545.817125
472,2010-01-26,541.687,,541.687
472,2010-01-27,612.4877916666667,,612.4877916666667
472,2010-01-28,583.3334166666667,,583.3334166666667
472,2010-01-29,395.8332083333333,,395.8332083333333
472,2010-01-30,404.17462500000005,,404.17462500000005
472,2010-01-31,379.170625,,379.170625
472,2010-02-01,383.32099999999997,,383.32099999999997
472,2010-02-02,362.50808333333333,,362.50808333333333
472,2010-02-03,387.4917083333333,,387.4917083333333
472,2010-02-04,366.67879166666665,,366.67879166666665
472,2010-02-05,379.15024999999997,,379.15024999999997
472,2010-02-06,362.50808333333333,,362.50808333333333
472,2010-02-07,379.170625,,379.170625
472,2010-02-08,395.8331666666666,,395.8331666666666
472,2010-02-09,400.0039166666666,,400.0039166666666
472,2010-02-10,408.32508333333334,,408.32508333333334
472,2010-02-11,383.34141666666665,,383.34141666666665
472,2010-02-12,179.15854166666668,,179.15854166666668
472,2010-02-13,0.0,,0.0
472,2010-02-14,0.0,,0.0
472,2010-02-15,0.0,,0.0
472,2010-02-16,0.0,,0.0
472,2010-02-17,0.0,,0.0
472,2010-02-18,0.0,,0.0
472,2010-02-19,204.16254166666667,,204.16254166666667
472,2010-02-20,437.5,,437.5
472,2010-02-21,420.83725,,420.83725
472,2010-02-22,416.66658333333334,,416.66658333333334
472,2010-02-23,454.16249999999997,,454.16249999999997
472,2010-02-24,445.84141666666665,,445.84141666666665
472,2010-02-25,441.670625,,441.670625
472,2010-02-26,383.32104166666664,,383.32104166666664
472,2010-02-27,408.3454583333333,,408.3454583333333
472,2010-02-28,429.15841666666665,,429.15841666666665
472,2010-03-01,437.49991666666665,,437.49991666666665
472,2010-03-02,458.33324999999996,,458.33324999999996
472,2010-03-03,445.84137499999997,,445.84137499999997
472,2010-03-04,433.329125,,433.329125
472,2010-03-05,437.4999583333333,,437.4999583333333
472,2010-03-06,462.50399999999996,,462.50399999999996
472,2010-03-07,462.483625,,462.483625
472,2010-03-08,483.337375,,483.337375
472,2010-03-09,483.337375,,483.337375
472,2010-03-10,470.825125,,470.825125
472,2010-03-11,475.01624999999996,,475.01624999999996
472,2010-03-12,462.483625,,462.483625
472,2010-03-13,454.18287499999997,,454.18287499999997
472,2010-03-14,437.4999583333333,,437.4999583333333
472,2010-03-15,449.99174999999997,,449.99174999999997
472,2010-03-16,479.16670833333336,,479.16670833333336
472,2010-03-17,495.82925,,495.82925
472,2010-03-18,283.34554166666663,,283.34554166666663
472,2010-03-19,199.99183333333335,,199.99183333333335
472,2010-03-20,0.0,,0.0
472,2010-03-21,0.0,,0.0
472,2010-03-22,0.0,,0.0
472,2010-03-23,0.0,,0.0
472,2010-03-24,0.0,,0.0
472,2010-03-25,0.0,,0.0
472,2010-03-26,0.0,,0.0
472,2010-03-27,0.0,,0.0
472,2010-03-28,0.0,,0.0
472,2010-03-29,0.0,,0.0
472,2010-03-30,0.0,,0.0
472,2010-03-31,0.0,,0.0
472,2010-04-01,0.0,,0.0
472,2010-04-02,0.0,,0.0
472,2010-04-03,0.0,,0.0
472,2010-04-04,0.0,,0.0
472,2010-04-05,0.0,,0.0
472,2010-04-06,0.0,,0.0
472,2010-04-07,0.0,,0.0
472,2010-04-08,0.0,,0.0
472,2010-04-09,0.0,,0.0
472,2010-04-10,0.0,,0.0
472,2010-04-11,0.0,,0.0
472,2010-04-12,0.0,,0.0
472,2010-04-13,0.0,,0.0
472,2010-04-14,0.0,,0.0
472,2010-04-15,0.0,,0.0
472,2010-04-16,74.99187500000001,,74.99187500000001
472,2010-04-17,0.0,,0.0
472,2010-04-18,0.0,,0.0
472,2010-04-19,0.0,,0.0
472,2010-04-20,0.0,,0.0
472,2010-04-21,0.0,,0.0
472,2010-04-22,0.0,,0.0
472,2010-04-23,0.0,,0.0
472,2010-04-24,0.0,,0.0
472,2010-04-25,0.0,,0.0
472,2010-04-26,0.0,,0.0
472,2010-04-27,0.0,,0.0
472,2010-04-28,0.0,,0.0
472,2010-04-29,0.0,,0.0
472,2010-04-30,0.0,,0.0
472,2010-05-01,0.0,,0.0
472,2010-05-02,0.0,,0.0
472,2010-05-03,87.52441666666665,,87.52441666666665
472,2010-05-04,4.1503749999999995,,4.1503749999999995
472,2010-05-05,0.0,,0.0
472,2010-05-06,0.0,,0.0
472,2010-05-07,0.0,,0.0
472,2010-05-08,0.0,,0.0
472,2010-05-09,312.5,,312.5
472,2010-05-10,775.0040833333334,,775.0040833333334
472,2010-05-11,541.666625,,541.666625
472,2010-05-12,0.0,,0.0
472,2010-05-13,0.0,,0.0
472,2010-05-14,0.0,,0.0
472,2010-05-15,0.0,,0.0
472,2010-05-16,0.0,,0.0
472,2010-05-17,0.0,,0.0
472,2010-05-18,0.0,,0.0
472,2010-05-19,0.0,,0.0
472,2010-05-20,0.0,,0.0
472,2010-05-21,0.0,,0.0
472,2010-05-22,0.0,,0.0
472,2010-05-23,0.0,,0.0
472,2010-05-24,0.0,,0.0
472,2010-05-25,0.0,,0.0
472,2010-05-26,0.0,,0.0
472,2010-05-27,0.0,,0.0
472,2010-05-28,0.0,,0.0
472,2010-05-29,0.0,,0.0
472,2010-05-30,0.0,,0.0
472,2010-05-31,0.0,,0.0
472,2010-06-01,0.0,,0.0
472,2010-06-02,0.0,,0.0
472,2010-06-03,0.0,,0.0
472,2010-06-04,0.0,,0.0
472,2010-06-05,0.0,,0.0
472,2010-06-06,0.0,,0.0
472,2010-06-07,0.0,,0.0
472,2010-06-08,0.0,,0.0
472,2010-06-09,0.0,,0.0
472,2010-06-10,0.0,,0.0
472,2010-06-11,0.0,,0.0
472,2010-06-12,0.0,,0.0
472,2010-06-13,0.0,,0.0
472,2010-06-14,0.0,,0.0
472,2010-06-15,0.0,,0.0
472,2010-06-16,0.0,,0.0
472,2010-06-17,0.0,,0.0
472,2010-06-18,0.0,,0.0
472,2010-06-19,0.0,,0.0
472,2010-06-20,0.0,,0.0
472,2010-06-21,0.0,,0.0
472,2010-06-22,0.0,,0.0
472,2010-06-23,0.0,,0.0
472,2010-06-24,0.0,,0.0
472,2010-06-25,0.0,,0.0
472,2010-06-26,0.0,,0.0
472,2010-06-27,0.0,,0.0
472,2010-06-28,0.0,,0.0
472,2010-06-29,0.0,,0.0
472,2010-06-30,0.0,,0.0
472,2010-07-01,0.0,,0.0
472,2010-07-02,0.0,,0.0
472,2010-07-03,0.0,,0.0
472,2010-07-04,0.0,,0.0
472,2010-07-05,0.0,,0.0
472,2010-07-06,0.0,,0.0
472,2010-07-07,0.0,,0.0
472,2010-07-08,0.0,,0.0
472,2010-07-09,0.0,,0.0
472,2010-07-10,0.0,,0.0
472,2010-07-11,0.0,,0.0
472,2010-07-12,0.0,,0.0
472,2010-07-13,29.174833333333336,,29.174833333333336
472,2010-07-14,8.321125,,8.321125
472,2010-07-15,0.0,,0.0
472,2010-07-16,0.0,,0.0
472,2010-07-17,0.0,,0.0
472,2010-07-18,0.0,,0.0
472,2010-07-19,0.0,,0.0
472,2010-07-20,8.3415,,8.3415
472,2010-07-21,29.174791666666668,,29.174791666666668
472,2010-07-22,695.8210833333333,,695.8210833333333
472,2010-07-23,1012.491875,,1012.491875
472,2010-07-24,962.5040416666667,,962.5040416666667
472,2010-07-25,0.0,,0.0
472,2010-07-26,0.0,,0.0
472,2010-07-27,0.0,,0.0
472,2010-07-28,0.0,,0.0
472,2010-07-29,0.0,,0.0
472,2010-07-30,0.0,,0.0
472,2010-07-31,0.0,,0.0
472,2010-08-01,0.0,,0.0
472,2010-08-02,0.0,,0.0
472,2010-08-03,0.0,,0.0
472,2010-08-04,0.0,,0.0
472,2010-08-05,66.67075,,66.67075
472,2010-08-06,0.0,,0.0
472,2010-08-07,0.0,,0.0
472,2010-08-08,0.0,,0.0
472,2010-08-09,0.0,,0.0
472,2010-08-10,0.0,,0.0
472,2010-08-11,0.0,,0.0
472,2010-08-12,0.0,,0.0
472,2010-08-13,0.0,,0.0
472,2010-08-14,0.0,,0.0
472,2010-08-15,0.0,,0.0
472,2010-08-16,0.0,,0.0
472,2010-08-17,0.0,,0.0
472,2010-08-18,0.0,,0.0
472,2010-08-19,0.0,,0.0
472,2010-08-20,0.0,,0.0
472,2010-08-21,0.0,,0.0
472,2010-08-22,0.0,,0.0
472,2010-08-23,0.0,,0.0
472,2010-08-24,0.0,,0.0
472,2010-08-25,0.0,,0.0
472,2010-08-26,0.0,,0.0
472,2010-08-27,0.0,,0.0
472,2010-08-28,0.0,,0.0
472,2010-08-29,0.0,,0.0
472,2010-08-30,0.0,,0.0
472,2010-08-31,0.0,,0.0
472,2010-09-01,0.0,,0.0
472,2010-09-02,0.0,,0.0
472,2010-09-03,0.0,,0.0
472,2010-09-04,0.0,,0.0
472,2010-09-05,0.0,,0.0
472,2010-09-06,0.0,,0.0
472,2010-09-07,0.0,,0.0
472,2010-09-08,0.0,,0.0
472,2010-09-09,0.0,,0.0
472,2010-09-10,0.0,,0.0
472,2010-09-11,0.0,,0.0
472,2010-09-12,0.0,,0.0
472,2010-09-13,0.0,,0.0
472,2010-09-14,0.0,,0.0
472,2010-09-15,0.0,,0.0
472,2010-09-16,0.0,,0.0
472,2010-09-17,0.0,,0.0
472,2010-09-18,0.0,,0.0
472,2010-09-19,0.0,,0.0
472,2010-09-20,0.0,,0.0
472,2010-09-21,170.83741666666666,,170.83741666666666
472,2010-09-22,437.5,,437.5
472,2010-09-23,237.50816666666665,,237.50816666666665
472,2010-09-24,454.16254166666664,,454.16254166666664
472,2010-09-25,945.8211249999999,,945.8211249999999
472,2010-09-26,800.0081666666666,,800.0081666666666
472,2010-09-27,1608.3374999999999,,1608.3374999999999
472,2010-09-28,2025.0040416666668,,2025.0040416666668
472,2010-09-29,1925.0081666666667,,1925.0081666666667
472,2010-09-30,0.0,,0.0
472,2010-10-01,0.0,,0.0
472,2010-10-02,0.0,,0.0
472,2010-10-03,0.0,,0.0
472,2010-10-04,0.0,,0.0
472,2010-10-05,0.0,,0.0
472,2010-10-06,0.0,,0.0
472,2010-10-07,0.0,,0.0
472,2010-10-08,0.0,,0.0
472,2010-10-09,0.0,,0.0
472,2010-10-10,0.0,,0.0
472,2010-10-11,0.0,,0.0
472,2010-10-12,0.0,,0.0
472,2010-10-13,0.0,,0.0
472,2010-10-14,0.0,,0.0
472,2010-10-15,0.0,,0.0
472,2010-10-16,0.0,,0.0
472,2010-10-17,0.0,,0.0
472,2010-10-18,0.0,,0.0
472,2010-10-19,0.0,,0.0
472,2010-10-20,0.0,,0.0
472,2010-10-21,91.6545,,91.6545
472,2010-10-22,354.1666666666667,,354.1666666666667
472,2010-10-23,758.3415,,758.3415
472,2010-10-24,0.0,,0.0
472,2010-10-25,0.0,,0.0
472,2010-10-26,1687.4999166666666,,1687.4999166666666
472,2010-10-27,1579.1828750000002,,1579.1828750000002
472,2010-10-28,775.0039166666667,,775.0039166666667
472,2010-10-29,458.33324999999996,,458.33324999999996
472,2010-10-30,433.329125,,433.329125
472,2010-10-31,437.499875,,437.499875
472,2010-11-01,520.8129583333333,,520.8129583333333
472,2010-11-02,608.3375416666667,,608.3375416666667
472,2010-11-03,0.0,,0.0
472,2010-11-04,633.3414583333333,,633.3414583333333
472,2010-11-05,662.4959166666666,,662.4959166666666
472,2010-11-06,625.0002083333333,,625.0002083333333
472,2010-11-07,0.0,,0.0
472,2010-11-08,0.0,,0.0
472,2010-11-09,599.9959583333333,,599.9959583333333
472,2010-11-10,683.349625,,683.349625
472,2010-11-11,654.1545416666667,,654.1545416666667
472,2010-11-12,724.9959166666666,,724.9959166666666
472,2010-11-13,729.1667083333333,,729.1667083333333
472,2010-11-14,683.3495833333333,,683.3495833333333
472,2010-11-15,745.8089166666667,,745.8089166666667
472,2010-11-16,791.666625,,791.666625
472,2010-11-17,879.1707500000001,,879.1707500000001
472,2010-11-18,675.0082083333333,,675.0082083333333
472,2010-11-19,625.0000416666667,,625.0000416666667
472,2010-11-20,629.17075,,629.17075
472,2010-11-21,604.1667916666667,,604.1667916666667
472,2010-11-22,795.8374166666667,,795.8374166666667
472,2010-11-23,845.82525,,845.82525
472,2010-11-24,629.1708333333333,,629.1708333333333
472,2010-11-25,612.487875,,612.487875
472,2010-11-26,658.3455833333334,,658.3455833333334
472,2010-11-27,599.9960833333333,,599.9960833333333
472,2010-11-28,604.1668333333333,,604.1668333333333
472,2010-11-29,620.8292916666667,,620.8292916666667
472,2010-11-30,720.82525,,720.82525
472,2010-12-01,879.1706666666668,,879.1706666666668
472,2010-12-02,612.50825,,612.50825
472,2010-12-03,616.6585833333334,,616.6585833333334
472,2010-12-04,600.0163333333334,,600.0163333333334
472,2010-12-05,612.4879999999999,,612.4879999999999
472,2010-12-06,599.9960833333333,,599.9960833333333
472,2010-12-07,604.1667916666667,,604.1667916666667
472,2010-12-08,0.0,,0.0
472,2010-12-09,0.0,,0.0
472,2010-12-10,595.825375,,595.825375
472,2010-12-11,620.849625,,620.849625
472,2010-12-12,0.0,,0.0
472,2010-12-13,612.5082083333333,,612.5082083333333
472,2010-12-14,458.333375,,458.333375
472,2010-12-15,0.0,,0.0
472,2010-12-16,0.0,,0.0
472,2010-12-17,0.0,,0.0
472,2010-12-18,0.0,,0.0
472,2010-12-19,0.0,,0.0
472,2010-12-20,141.68291666666667,,141.68291666666667
472,2010-12-21,0.0,,0.0
472,2010-12-22,0.0,,0.0
472,2010-12-23,0.0,,0.0
472,2010-12-24,0.0,,0.0
472,2010-12-25,0.0,,0.0
472,2010-12-26,0.0,,0.0
472,2010-12-27,0.0,,0.0
472,2010-12-28,0.0,,0.0
472,2010-12-29,0.0,,0.0
472,2010-12-30,0.0,,0.0
472,2010-12-31,0.0,,0.0
472,2011-01-01,0.0,,0.0
472,2011-01-02,0.0,,0.0
472,2011-01-03,0.0,,0.0
472,2011-01-04,0.0,,0.0
472,2011-01-05,0.0,,0.0
472,2011-01-06,0.0,,0.0
472,2011-01-07,0.0,,0.0
472,2011-01-08,0.0,,0.0
472,2011-01-09,0.0,,0.0
472,2011-01-10,0.0,,0.0
472,2011-01-11,0.0,,0.0
472,2011-01-12,0.0,,0.0
472,2011-01-13,0.0,,0.0
472,2011-01-14,0.0,,0.0
472,2011-01-15,0.0,,0.0
472,2011-01-16,0.0,,0.0
472,2011-01-17,0.0,,0.0
472,2011-01-18,0.0,,0.0
472,2011-01-19,0.0,,0.0
472,2011-01-20,0.0,,0.0
472,2011-01-21,0.0,,0.0
472,2011-01-22,0.0,,0.0
472,2011-01-23,0.0,,0.0
472,2011-01-24,0.0,,0.0
472,2011-01-25,0.0,,0.0
472,2011-01-26,0.0,,0.0